[[{"header":{"parameterUnit":"m.s-1","parameterCategory":2,"la1":30.2991,"la2":30.254,"lo1":-89.0895,"lo2":-89.0444,"dy":0.0017,"dx":0.0017,"nx":28,"ny":28,"refTime":"2023-10-03T09:00:00:Z","depth":"0","parameterNumber":2,"parameterNumberName":"U-component_of_CURRENTS"},"data":[0,0,0,0,0,0,0,0,0,0,0,0,0,0,0,0,0,0,0,0,0,0,0,0,0,0,0,0,0,0,0,0,0,0,0,0,0,0,0,0,0,0,0,0,0,0,0,0,0,0,0,0,0,0,0,0,0,0,-0.3,-0.3002,0,-0.3063,-0.3063,-0.3063,-0.2977,-0.2975,-0.2972,-0.297,-0.286,-0.286,-0.2859,0,0,0,0,0,0,0,0,0,0,0,0,0,-0.2671,-0.2678,-0.3,-0.3002,-0.3003,-0.3063,-0.3063,-0.3063,-0.2978,-0.2975,-0.2972,-0.2969,-0.2861,-0.286,-0.2859,0,0,0,0,0,0,0,0,0,0,0,0,0,-0.2775,-0.268,-0.3,-0.2973,-0.2972,-0.3063,-0.3063,-0.3064,-0.2978,-0.2975,-0.2971,-0.2968,-0.2861,-0.286,-0.2859,-0.2925,0,0,-0.2856,-0.2855,0,0,0,0,0,0,0,0,-0.277,-0.2787,-0.2975,-0.2975,-0.2974,-0.3015,-0.2907,-0.3011,-0.2979,-0.2968,-0.297,-0.2966,-0.2904,-0.2899,-0.2911,-0.292,-0.2915,-0.2856,-0.2855,-0.2855,-0.2854,0,0,0,0,0,0,0,-0.2763,-0.2783,-0.3018,-0.2978,-0.2977,-0.2912,-0.2923,-0.2926,-0.2946,-0.2969,-0.2964,-0.2984,-0.29,-0.2912,-0.2907,-0.2913,-0.2856,-0.2855,-0.2854,-0.2854,-0.293,-0.2933,0,0,0,0,0,0,-0.2783,-0.2778,-0.3016,-0.302,-0.2869,-0.2922,-0.2934,-0.2999,-0.295,-0.2943,-0.2987,-0.298,-0.2916,-0.2908,-0.2903,-0.2918,-0.2855,-0.2854,-0.2853,-0.2928,-0.2931,-0.2934,0,0,0,0,0,0,-0.2776,-0.2805,-0.3013,-0.2902,-0.2925,-0.2933,-0.3006,-0.3003,-0.3013,-0.2968,-0.2954,-0.3001,-0.2912,-0.2904,-0.2909,-0.2914,-0.2853,-0.2852,-0.2925,-0.2929,-0.2932,-0.2986,0,0,0,0,0,0,-0.2767,-0.2804,-0.2856,-0.2906,-0.2932,-0.3078,-0.301,-0.3007,-0.3035,-0.3026,-0.2976,-0.2962,-0.2909,-0.2912,-0.2908,-0.2912,-0.2851,-0.2921,-0.2926,-0.2931,-0.2981,-0.2992,-0.3001,0,0,0,0,0,-0.2756,-0.2863,-0.286,-0.2888,-0.3007,-0.3082,-0.3089,-0.3074,-0.304,-0.3065,-0.3024,-0.2963,-0.294,-0.2914,-0.2909,-0.2912,-0.2919,-0.2925,-0.2931,-0.2977,-0.299,-0.3,0,0,0,0,0,0,-0.2786,-0.2867,-0.2863,-0.3,-0.3035,-0.307,-0.3108,-0.3095,-0.309,-0.3068,-0.3005,-0.2991,-0.2998,-0.2971,-0.2944,-0.2956,-0.2918,-0.2923,-0.2955,-0.2966,-0.2976,-0.2933,-0.2851,0,0,0,0,0,-0.2814,-0.2891,-0.2951,-0.3058,-0.308,-0.3092,-0.3121,-0.311,-0.3117,-0.311,-0.3076,-0.3043,-0.3028,-0.3007,-0.2999,-0.3013,-0.2946,-0.3015,-0.3025,-0.3033,-0.3,-0.2902,-0.2897,-0.2953,-0.2953,-0.2953,0,0,-0.2861,-0.2912,-0.2961,-0.3063,-0.3085,-0.3124,-0.3099,-0.3155,-0.3163,-0.3101,-0.3104,-0.3086,-0.3048,-0.3051,-0.3051,-0.3018,-0.2998,-0.304,-0.3046,-0.3008,-0.2907,-0.2901,-0.2895,-0.2957,-0.2957,-0.2956,0,0,-0.2953,-0.3032,-0.3092,-0.3125,-0.3169,-0.3174,-0.3195,-0.3228,-0.3215,-0.3239,-0.3184,-0.3167,-0.3165,-0.3115,-0.3093,-0.3162,-0.3065,-0.3175,-0.3164,-0.3071,-0.3063,-0.3055,-0.3015,-0.3003,-0.3162,-0.3162,-0.3162,0,-0.2987,-0.307,-0.3124,-0.3171,-0.3175,-0.3197,-0.3216,-0.3247,-0.3268,-0.3225,-0.3243,-0.3187,-0.3183,-0.3122,-0.3158,-0.3174,-0.3119,-0.3115,-0.3076,-0.3066,-0.3057,-0.3017,-0.3003,-0.3165,-0.3165,-0.3165,-0.3164,0,-0.3087,-0.3142,-0.3188,-0.3227,-0.3254,-0.3289,-0.3311,-0.3318,-0.3303,-0.3285,-0.3245,-0.3245,-0.3178,-0.3209,-0.321,-0.3147,-0.3133,-0.3107,-0.3028,-0.3053,-0.3013,-0.2996,-0.317,-0.3169,-0.3168,-0.3167,0,0,-0.3134,-0.3227,-0.3226,-0.3197,-0.3259,-0.3265,-0.3298,-0.327,-0.3224,-0.3256,-0.3174,-0.3206,-0.3171,-0.3149,-0.3143,-0.3092,-0.3042,-0.3081,-0.3075,-0.3011,-0.2859,-0.2825,-0.2804,-0.2989,-0.2986,-0.2983,-0.2874,0,-0.3147,-0.3187,-0.3246,-0.324,-0.3227,-0.3244,-0.3255,-0.3237,-0.322,-0.3171,-0.3145,-0.3101,-0.316,-0.3123,-0.3088,-0.3051,-0.2994,-0.3076,-0.287,-0.2864,-0.2802,-0.2781,-0.2665,-0.2553,-0.2858,-0.2855,-0.2853,0,-0.3154,-0.3162,-0.3151,-0.3134,-0.3133,-0.3144,-0.3055,-0.308,-0.3046,-0.3032,-0.2981,-0.2976,-0.2937,-0.2981,-0.2888,-0.2932,-0.2896,-0.2873,-0.2866,-0.2785,-0.2796,-0.257,-0.2511,-0.251,-0.2827,-0.2829,-0.2831,0,-0.2998,-0.3063,-0.3012,-0.3018,-0.3044,-0.3007,-0.3011,-0.299,-0.2975,-0.2921,-0.2896,-0.2839,-0.282,-0.2753,-0.2778,-0.2803,-0.2668,-0.2679,-0.2604,-0.2604,-0.2436,-0.2426,-0.2309,-0.2559,-0.2559,-0.2559,-0.2559,0,-0.2898,-0.2853,-0.2929,-0.2882,-0.2814,-0.2876,-0.2799,-0.2803,-0.2806,-0.2764,-0.2803,-0.2761,-0.2759,-0.2717,-0.2707,-0.2621,-0.2599,-0.2575,-0.2547,-0.2465,-0.2459,-0.2395,-0.2425,-0.2555,-0.2556,-0.2557,-0.2557,0,-0.2684,-0.2749,-0.2694,-0.2721,-0.2728,-0.266,-0.2703,-0.2662,-0.2697,-0.2646,-0.2633,-0.2677,-0.263,-0.2632,-0.2543,-0.2529,-0.2393,-0.241,-0.2355,-0.2321,-0.2243,-0.2282,-0.2098,-0.2044,-0.2277,-0.2275,-0.2273,0,-0.256,-0.2519,-0.255,-0.253,-0.2532,-0.2496,-0.2489,-0.2562,-0.255,-0.2587,-0.2549,-0.2537,-0.2502,-0.2409,-0.2353,-0.2271,-0.2297,-0.2132,-0.2146,-0.2193,-0.2215,-0.225,-0.2222,-0.1976,-0.1972,-0.1969,-0.1966,0,-0.2321,-0.2357,-0.2326,-0.2308,-0.2292,-0.2289,-0.2296,-0.2292,-0.2376,-0.2374,-0.237,-0.2351,-0.2301,-0.2193,-0.2131,-0.2066,-0.2075,-0.2063,-0.2078,-0.1929,-0.1982,-0.1933,-0.2158,-0.1937,-0.194,-0.1942,-0.1944,-0.1945,-0.2152,-0.2101,-0.2109,-0.2072,-0.2078,-0.2073,-0.2016,-0.2076,-0.2067,-0.205,-0.2143,-0.2079,-0.2059,-0.1953,-0.1911,-0.18,-0.1858,-0.1743,-0.1779,-0.1807,-0.1758,-0.1959,-0.1733,-0.1734,-0.1736,-0.1737,-0.1738,0,-0.194,-0.1924,-0.1888,-0.1855,-0.1806,-0.1874,-0.1878,-0.1819,-0.1776,-0.1815,-0.1797,-0.1764,-0.1685,-0.1691,-0.1614,-0.1544,-0.1516,-0.1515,-0.1522,-0.15,-0.1617,-0.1608,-0.1383,-0.1383,-0.1383,-0.1383,-0.1383,-0.1383,-0.1825,-0.1731,-0.1732,-0.1598,-0.1583,-0.1476,-0.1451,-0.1412,-0.141,-0.1352,-0.1345,-0.1374,-0.1438,-0.1567,-0.1501,-0.1428,-0.1419,-0.1353,-0.1416,-0.1514,-0.1539,-0.1562,-0.156,-0.1328,-0.1328,-0.1226,-0.1225,-0.1225]},{"header":{"parameterUnit":"m.s-1","parameterCategory":2,"la1":30.2991,"la2":30.254,"lo1":-89.0895,"lo2":-89.0444,"dy":0.0017,"dx":0.0017,"nx":28,"ny":28,"refTime":"2023-10-03T09:00:00:Z","depth":"0","parameterNumber":3,"parameterNumberName":"V-component_of_CURRENTS"},"data":[0,0,0,0,0,0,0,0,0,0,0,0,0,0,0,0,0,0,0,0,0,0,0,0,0,0,0,0,0,0,0,0,0,0,0,0,0,0,0,0,0,0,0,0,0,0,0,0,0,0,0,0,0,0,0,0,0,0,-0.0274,-0.0273,0,-0.0157,-0.0155,-0.0154,-0.0082,-0.0082,-0.0082,-0.0082,0.0051,0.0054,0.0058,0,0,0,0,0,0,0,0,0,0,0,0,0,-0.029,-0.0291,-0.0274,-0.0273,-0.0272,-0.0157,-0.0155,-0.0153,-0.0082,-0.0082,-0.0082,-0.0082,0.005,0.0054,0.0058,0,0,0,0,0,0,0,0,0,0,0,0,0,-0.0238,-0.0291,-0.0274,-0.0224,-0.0218,-0.0157,-0.0155,-0.0153,-0.0082,-0.0082,-0.0082,-0.0082,0.0049,0.0054,0.0059,0.0084,0,0,0.0074,0.0076,0,0,0,0,0,0,0,0,-0.0241,-0.0237,-0.0232,-0.0227,-0.0221,-0.0136,-0.0112,-0.0073,-0.0082,-0.0132,-0.0082,-0.0081,-0.0011,-0.0001,0.0023,0.009,0.0096,0.0074,0.0078,0.008,0.0081,0,0,0,0,0,0,0,-0.0245,-0.0241,-0.0226,-0.0231,-0.0224,-0.0157,-0.015,-0.0104,-0.0073,-0.0128,-0.0123,-0.0113,-0.0008,0.0018,0.0026,0.0098,0.0074,0.0079,0.0082,0.0084,0.0218,0.0219,0,0,0,0,0,0,-0.0271,-0.0245,-0.0229,-0.0222,-0.0232,-0.0157,-0.015,-0.0162,-0.0074,-0.006,-0.0113,-0.011,0.0009,0.002,0.0031,0.0071,0.008,0.0084,0.0087,0.0218,0.0218,0.0219,0,0,0,0,0,0,-0.0272,-0.0272,-0.0234,-0.0231,-0.0222,-0.0159,-0.0172,-0.016,-0.0137,-0.0063,-0.0049,-0.0104,0.0009,0.0024,0.0081,0.0077,0.0087,0.0091,0.0217,0.0218,0.0219,0.0148,0,0,0,0,0,0,-0.0274,-0.0274,-0.0294,-0.0234,-0.0223,-0.0208,-0.0172,-0.0157,-0.0132,-0.0127,-0.005,-0.0037,0.0011,0.0073,0.0086,0.0084,0.0095,0.0216,0.0217,0.0218,0.015,0.0147,0.0144,0,0,0,0,0,-0.0275,-0.0309,-0.0296,-0.0294,-0.0254,-0.0209,-0.0197,-0.0148,-0.0132,-0.0126,-0.0064,-0.004,0.0088,0.0078,0.0093,0.0092,0.0216,0.0217,0.0218,0.0151,0.0147,0.0144,0,0,0,0,0,0,-0.0328,-0.0303,-0.0288,-0.0314,-0.0268,-0.0198,-0.0194,-0.0156,-0.0103,-0.0101,-0.0028,-0.0011,0.0038,0.0077,0.0063,0.0135,0.0154,0.0158,0.0098,0.0095,0.0092,0.0067,0.0099,0,0,0,0,0,-0.0352,-0.0373,-0.032,-0.0342,-0.0325,-0.0261,-0.0239,-0.0203,-0.0147,-0.0124,-0.0064,-0.0002,0.0055,0.0083,0.0139,0.0176,0.021,0.0186,0.0183,0.018,0.0171,0.0221,0.0221,0.0223,0.0223,0.0223,0,0,-0.0379,-0.0369,-0.0381,-0.0355,-0.032,-0.0296,-0.0247,-0.0223,-0.0196,-0.0118,-0.007,-0.001,0.0065,0.0113,0.0136,0.0143,0.0198,0.0181,0.0178,0.0171,0.0222,0.0222,0.0222,0.0224,0.0223,0.0223,0,0,-0.0438,-0.0436,-0.0465,-0.0431,-0.0388,-0.0337,-0.0334,-0.0263,-0.0227,-0.017,-0.0107,-0.0048,0.0037,0.0093,0.0131,0.0144,0.0182,0.0157,0.0119,0.0167,0.0167,0.0167,0.0208,0.0212,0.0153,0.0153,0.0152,0,-0.0475,-0.0498,-0.0462,-0.0465,-0.0438,-0.0361,-0.0355,-0.0307,-0.0222,-0.0193,-0.0167,-0.0032,0.0029,0.0092,0.01,0.0135,0.0164,0.0123,0.0161,0.0162,0.0163,0.0205,0.0211,0.0149,0.015,0.015,0.015,0,-0.0536,-0.0548,-0.0559,-0.0537,-0.0499,-0.0486,-0.0406,-0.0368,-0.0311,-0.0253,-0.018,-0.0087,-0.001,0.002,0.0067,0.0107,0.0126,0.015,0.0162,0.0158,0.0203,0.021,0.0145,0.0146,0.0147,0.0148,0,0,-0.064,-0.061,-0.0616,-0.0599,-0.0533,-0.0501,-0.0464,-0.0395,-0.0368,-0.0285,-0.0242,-0.0138,-0.0091,-0.0045,0.0021,0.0066,0.0107,0.0102,0.0107,0.0127,0.0205,0.0268,0.0282,0.0133,0.0134,0.0134,0.0231,0,-0.0697,-0.0714,-0.0679,-0.0665,-0.0649,-0.0568,-0.0532,-0.046,-0.0388,-0.0327,-0.0236,-0.0167,-0.0115,-0.0076,-0.0026,0.0083,0.0123,0.0078,0.0219,0.0224,0.0267,0.0292,0.0334,0.0429,0.0239,0.024,0.0241,0,-0.0765,-0.0758,-0.0764,-0.0704,-0.0692,-0.0671,-0.0585,-0.0544,-0.0449,-0.0397,-0.0326,-0.0246,-0.0157,-0.0115,0.0037,0.0003,0.009,0.0167,0.0173,0.0259,0.03,0.0405,0.0449,0.0581,0.0252,0.0251,0.025,0,-0.0826,-0.0812,-0.0812,-0.0794,-0.0722,-0.0708,-0.0662,-0.0573,-0.0536,-0.0443,-0.0408,-0.0295,-0.0223,-0.0113,0.0054,0.0042,0.0221,0.023,0.0363,0.0368,0.0448,0.0459,0.0624,0.0323,0.0322,0.0322,0.0322,0,-0.0883,-0.0883,-0.0844,-0.084,-0.083,-0.0759,-0.0738,-0.0679,-0.0605,-0.0559,-0.0456,-0.0388,-0.0219,-0.0088,0.0037,0.0233,0.0212,0.0362,0.0403,0.0426,0.0434,0.0587,0.0626,0.0326,0.0325,0.0324,0.0324,0,-0.0938,-0.0921,-0.0917,-0.087,-0.086,-0.0848,-0.0795,-0.0777,-0.0701,-0.0638,-0.0612,-0.0449,-0.0263,-0.009,0.0123,0.0231,0.0492,0.047,0.0486,0.0526,0.0761,0.0793,0.0975,0.1062,0.0622,0.0624,0.0626,0,-0.0962,-0.0971,-0.0953,-0.0956,-0.094,-0.092,-0.0911,-0.0837,-0.0807,-0.0661,-0.0634,-0.0443,-0.0271,0.0056,0.0289,0.0526,0.0606,0.0681,0.0672,0.0792,0.0857,0.0864,0.0924,0.0749,0.0752,0.0754,0.0756,0,-0.0997,-0.1003,-0.0998,-0.1012,-0.1014,-0.1009,-0.0983,-0.0967,-0.0863,-0.0783,-0.0613,-0.046,-0.012,0.0205,0.0506,0.0635,0.0784,0.0734,0.0863,0.0978,0.0992,0.1089,0.0657,0.0776,0.0774,0.0772,0.0771,0.077,-0.1025,-0.1037,-0.1044,-0.1051,-0.1065,-0.1067,-0.1042,-0.0985,-0.0907,-0.0717,-0.0591,-0.0289,0.0133,0.0589,0.0736,0.1043,0.0981,0.1117,0.1147,0.1144,0.1232,0.084,0.1002,0.1002,0.1001,0.1001,0.1,0,-0.1043,-0.1053,-0.1074,-0.1082,-0.1103,-0.1097,-0.1062,-0.0994,-0.0868,-0.0649,-0.0437,0.0099,0.0518,0.0878,0.1294,0.1446,0.1466,0.1504,0.1525,0.1568,0.1239,0.125,0.1468,0.1468,0.1468,0.1468,0.1468,0.1468,-0.1049,-0.1069,-0.1077,-0.1101,-0.1109,-0.1087,-0.1051,-0.0921,-0.0742,-0.0355,-0.0011,0.0261,0.0739,0.14,0.1776,0.1796,0.1923,0.1894,0.197,0.1738,0.1704,0.1671,0.1694,0.2002,0.2002,0.2295,0.2298,0.23]}],[{"header":{"parameterUnit":"m.s-1","parameterCategory":2,"la1":30.2991,"la2":30.254,"lo1":-89.0895,"lo2":-89.0444,"dy":0.0017,"dx":0.0017,"nx":28,"ny":28,"refTime":"2023-10-03T09:00:00:Z","depth":"2","parameterNumber":2,"parameterNumberName":"U-component_of_CURRENTS"},"data":[0,0,0,0,0,0,0,0,0,0,0,0,0,0,0,0,0,0,0,0,0,0,0,0,0,0,0,0,0,0,0,0,0,0,0,0,0,0,0,0,0,0,0,0,0,0,0,0,0,0,0,0,0,0,0,0,0,0,-0.2402,-0.2403,0,-0.2493,-0.2494,-0.2495,-0.2465,-0.2463,-0.2461,-0.2459,-0.2444,-0.2446,-0.2447,0,0,0,0,0,0,0,0,0,0,0,0,0,-0.2217,-0.2221,-0.2402,-0.2403,-0.2405,-0.2493,-0.2494,-0.2495,-0.2465,-0.2463,-0.2461,-0.2459,-0.2444,-0.2446,-0.2447,0,0,0,0,0,0,0,0,0,0,0,0,0,-0.23,-0.2222,-0.2402,-0.2402,-0.2403,-0.2493,-0.2494,-0.2495,-0.2465,-0.2463,-0.246,-0.2457,-0.2444,-0.2445,-0.2447,-0.2512,0,0,-0.2453,-0.2454,0,0,0,0,0,0,0,0,-0.2295,-0.2306,-0.2401,-0.2402,-0.2404,-0.2467,-0.2424,-0.2496,-0.2466,-0.2439,-0.2459,-0.2456,-0.2445,-0.2447,-0.2469,-0.2512,-0.2511,-0.2453,-0.2454,-0.2455,-0.2456,0,0,0,0,0,0,0,-0.229,-0.2302,-0.2436,-0.2402,-0.2404,-0.2403,-0.2411,-0.2438,-0.2453,-0.2442,-0.244,-0.2455,-0.2445,-0.2467,-0.2468,-0.2511,-0.2453,-0.2455,-0.2456,-0.2457,-0.2595,-0.2597,0,0,0,0,0,0,-0.2286,-0.2298,-0.2433,-0.2439,-0.2344,-0.2408,-0.2418,-0.2447,-0.2455,-0.2455,-0.2457,-0.2453,-0.2465,-0.2466,-0.2467,-0.2517,-0.2455,-0.2457,-0.2458,-0.2592,-0.2595,-0.2598,0,0,0,0,0,0,-0.2282,-0.2298,-0.2429,-0.237,-0.2387,-0.2414,-0.2448,-0.2451,-0.2471,-0.2468,-0.2464,-0.2474,-0.2463,-0.2464,-0.2499,-0.2516,-0.2458,-0.2459,-0.2589,-0.2593,-0.2597,-0.2634,0,0,0,0,0,0,-0.2276,-0.2296,-0.2323,-0.2371,-0.2391,-0.2497,-0.2451,-0.2454,-0.2485,-0.2481,-0.2483,-0.2478,-0.2461,-0.2497,-0.2501,-0.2518,-0.2461,-0.2586,-0.2591,-0.2595,-0.263,-0.2639,-0.2646,0,0,0,0,0,-0.227,-0.2333,-0.2324,-0.2341,-0.2425,-0.2499,-0.251,-0.2517,-0.2489,-0.2521,-0.2513,-0.2478,-0.2529,-0.2501,-0.2505,-0.2523,-0.2584,-0.2589,-0.2595,-0.2626,-0.2637,-0.2646,0,0,0,0,0,0,-0.2282,-0.2338,-0.2328,-0.2407,-0.2449,-0.2495,-0.2536,-0.253,-0.2554,-0.2543,-0.2517,-0.2516,-0.2544,-0.2549,-0.2518,-0.2582,-0.2549,-0.2556,-0.2571,-0.2582,-0.259,-0.2552,-0.2463,0,0,0,0,0,-0.2294,-0.2344,-0.2392,-0.2453,-0.2479,-0.2504,-0.2535,-0.2539,-0.2565,-0.2573,-0.2574,-0.2576,-0.2579,-0.259,-0.26,-0.2651,-0.2596,-0.2667,-0.2675,-0.2682,-0.2659,-0.2578,-0.2574,-0.2617,-0.2617,-0.2616,0,0,-0.2316,-0.2352,-0.2381,-0.2456,-0.2488,-0.2531,-0.2516,-0.2577,-0.2596,-0.2569,-0.2607,-0.2606,-0.2598,-0.2636,-0.2651,-0.2639,-0.2655,-0.2689,-0.2695,-0.2667,-0.2583,-0.2578,-0.2573,-0.262,-0.262,-0.2619,0,0,-0.2379,-0.2418,-0.247,-0.2504,-0.2558,-0.2574,-0.2591,-0.2644,-0.2654,-0.2699,-0.2667,-0.268,-0.2715,-0.2704,-0.2699,-0.2771,-0.2694,-0.2785,-0.2801,-0.2724,-0.2718,-0.2711,-0.2676,-0.2666,-0.2797,-0.2797,-0.2797,0,-0.2393,-0.245,-0.25,-0.2548,-0.2559,-0.2589,-0.262,-0.266,-0.2712,-0.2697,-0.2714,-0.2712,-0.2736,-0.2718,-0.276,-0.2783,-0.2732,-0.2755,-0.2727,-0.272,-0.2712,-0.2677,-0.2665,-0.2799,-0.2799,-0.2799,-0.2798,0,-0.2475,-0.251,-0.2551,-0.2594,-0.2634,-0.2671,-0.2712,-0.2744,-0.2748,-0.2748,-0.2745,-0.2777,-0.2755,-0.2791,-0.2806,-0.2777,-0.2757,-0.2733,-0.2684,-0.2709,-0.2673,-0.266,-0.2803,-0.2802,-0.2801,-0.2801,0,0,-0.2489,-0.2581,-0.2583,-0.2573,-0.264,-0.2664,-0.2715,-0.2725,-0.2704,-0.2758,-0.2714,-0.2773,-0.2758,-0.2755,-0.2771,-0.2747,-0.2709,-0.2735,-0.2729,-0.267,-0.2548,-0.2503,-0.2484,-0.2656,-0.2653,-0.2651,-0.2557,0,-0.2503,-0.2559,-0.2614,-0.2631,-0.2639,-0.2671,-0.2699,-0.2716,-0.2725,-0.2711,-0.2713,-0.2698,-0.2752,-0.2744,-0.2726,-0.2706,-0.2669,-0.2737,-0.2558,-0.2554,-0.2483,-0.2465,-0.2295,-0.219,-0.2543,-0.2541,-0.2539,0,-0.2521,-0.2542,-0.2565,-0.2574,-0.2584,-0.2607,-0.2586,-0.2623,-0.2622,-0.2628,-0.2605,-0.2607,-0.2608,-0.264,-0.2577,-0.2609,-0.258,-0.2564,-0.2558,-0.2479,-0.2481,-0.2219,-0.2152,-0.2517,-0.2518,-0.252,-0.2522,0,-0.2417,-0.2483,-0.2474,-0.2483,-0.2532,-0.2529,-0.255,-0.2567,-0.2576,-0.2559,-0.2551,-0.2519,-0.2521,-0.2461,-0.249,-0.2508,-0.2397,-0.2406,-0.2325,-0.2323,-0.2123,-0.2108,-0.2305,-0.2305,-0.2305,-0.2306,-0.2306,0,-0.2355,-0.2339,-0.2419,-0.24,-0.2376,-0.2443,-0.2418,-0.2441,-0.2464,-0.2442,-0.2491,-0.2464,-0.2472,-0.2437,-0.2428,-0.2345,-0.2336,-0.2302,-0.2274,-0.2143,-0.2131,-0.2366,-0.2374,-0.2302,-0.2303,-0.2304,-0.2304,0,-0.2219,-0.228,-0.2262,-0.2309,-0.2322,-0.2297,-0.2356,-0.2338,-0.239,-0.2366,-0.2364,-0.2407,-0.2365,-0.2368,-0.2292,-0.2271,-0.2193,-0.2157,-0.2037,-0.1996,-0.2188,-0.2201,-0.2032,-0.2029,-0.2027,-0.2025,-0.2023,0,-0.2147,-0.213,-0.2174,-0.2167,-0.2183,-0.2185,-0.2189,-0.2269,-0.2268,-0.2317,-0.2287,-0.2285,-0.2242,-0.2154,-0.2092,-0.201,-0.2104,-0.1823,-0.1826,-0.2159,-0.215,-0.2166,-0.2181,-0.1598,-0.1593,-0.1589,-0.1585,0,-0.1991,-0.202,-0.2012,-0.201,-0.2012,-0.2021,-0.2042,-0.205,-0.2131,-0.2134,-0.2125,-0.21,-0.2041,-0.189,-0.1825,-0.1758,-0.1828,-0.1737,-0.2044,-0.1713,-0.1746,-0.174,-0.1768,-0.1548,-0.1552,-0.1555,-0.1557,-0.1558,-0.1865,-0.1834,-0.1845,-0.1829,-0.1845,-0.1844,-0.1801,-0.1851,-0.1846,-0.1822,-0.1899,-0.1801,-0.1798,-0.1591,-0.1516,-0.1459,-0.1583,-0.1516,-0.1529,-0.1546,-0.1532,-0.156,-0.1327,-0.133,-0.1332,-0.1334,-0.1335,0,-0.169,-0.1685,-0.1667,-0.1649,-0.1612,-0.1675,-0.1681,-0.1621,-0.157,-0.158,-0.1544,-0.1373,-0.1279,-0.1286,-0.1139,-0.1127,-0.1118,-0.1087,-0.1077,-0.1113,-0.1145,-0.1112,-0.0795,-0.0794,-0.0792,-0.0791,0,0,-0.1592,-0.1521,-0.1527,-0.142,-0.1413,-0.1315,-0.1291,-0.1238,-0.1213,-0.1125,-0.1068,-0.1144,-0.1202,-0.0988,-0.0956,-0.085,-0.0967,-0.08,-0.1225,-0.1244,-0.1274,-0.1375,-0.1362,0,0,0,0,0]},{"header":{"parameterUnit":"m.s-1","parameterCategory":2,"la1":30.2991,"la2":30.254,"lo1":-89.0895,"lo2":-89.0444,"dy":0.0017,"dx":0.0017,"nx":28,"ny":28,"refTime":"2023-10-03T09:00:00:Z","depth":"2","parameterNumber":3,"parameterNumberName":"V-component_of_CURRENTS"},"data":[0,0,0,0,0,0,0,0,0,0,0,0,0,0,0,0,0,0,0,0,0,0,0,0,0,0,0,0,0,0,0,0,0,0,0,0,0,0,0,0,0,0,0,0,0,0,0,0,0,0,0,0,0,0,0,0,0,0,-0.0277,-0.0277,0,-0.0204,-0.0203,-0.0202,-0.014,-0.0139,-0.0139,-0.0139,-0.0002,0.0001,0.0005,0,0,0,0,0,0,0,0,0,0,0,0,0,-0.026,-0.0261,-0.0277,-0.0277,-0.0276,-0.0204,-0.0203,-0.0202,-0.014,-0.0139,-0.0139,-0.0138,-0.0003,0.0001,0.0005,0,0,0,0,0,0,0,0,0,0,0,0,0,-0.0233,-0.0262,-0.0277,-0.0238,-0.0234,-0.0204,-0.0203,-0.0201,-0.014,-0.0139,-0.0139,-0.0138,-0.0004,0.0001,0.0005,0.0022,0,0,0.002,0.0022,0,0,0,0,0,0,0,0,-0.0235,-0.0234,-0.0245,-0.0241,-0.0236,-0.0183,-0.0147,-0.0124,-0.014,-0.0173,-0.0139,-0.0138,-0.0058,-0.0049,-0.0034,0.0028,0.0034,0.0021,0.0024,0.0026,0.0027,0,0,0,0,0,0,0,-0.0237,-0.0236,-0.0246,-0.0244,-0.0239,-0.0189,-0.0185,-0.0142,-0.0117,-0.017,-0.0166,-0.0162,-0.0055,-0.0039,-0.003,0.0036,0.002,0.0025,0.0028,0.003,0.0151,0.0151,0,0,0,0,0,0,-0.0258,-0.0239,-0.0248,-0.0244,-0.0237,-0.0191,-0.0186,-0.0198,-0.0119,-0.0108,-0.0163,-0.016,-0.0048,-0.0036,-0.0025,0.0019,0.0026,0.003,0.0033,0.0151,0.0151,0.0152,0,0,0,0,0,0,-0.0258,-0.026,-0.0251,-0.024,-0.0236,-0.0193,-0.0206,-0.0197,-0.0183,-0.0115,-0.0101,-0.0158,-0.0047,-0.0032,0.002,0.0024,0.0032,0.0037,0.015,0.0151,0.0151,0.0094,0,0,0,0,0,0,-0.0258,-0.0261,-0.0279,-0.0242,-0.0237,-0.0242,-0.0207,-0.0197,-0.0183,-0.0177,-0.0106,-0.0093,-0.0045,0.0012,0.0025,0.0031,0.004,0.015,0.0151,0.0151,0.0096,0.0093,0.009,0,0,0,0,0,-0.0258,-0.0292,-0.0281,-0.0282,-0.0264,-0.0243,-0.0235,-0.0199,-0.0183,-0.0182,-0.0125,-0.0095,0.0025,0.0017,0.0031,0.0038,0.015,0.0151,0.0151,0.0097,0.0093,0.009,0,0,0,0,0,0,-0.0297,-0.0288,-0.0275,-0.0306,-0.0278,-0.0233,-0.0236,-0.0208,-0.0164,-0.0159,-0.0089,-0.0071,-0.0027,0.0014,0.0002,0.0076,0.0092,0.0095,0.0045,0.0043,0.004,0.0025,0.0044,0,0,0,0,0,-0.0315,-0.034,-0.0309,-0.0334,-0.0324,-0.028,-0.0269,-0.0244,-0.02,-0.0181,-0.0125,-0.0066,-0.0013,0.002,0.0067,0.0108,0.0144,0.0123,0.012,0.0117,0.0116,0.0173,0.0175,0.0154,0.0154,0.0154,0,0,-0.0337,-0.0337,-0.035,-0.0343,-0.032,-0.0308,-0.0271,-0.0264,-0.0242,-0.0173,-0.0129,-0.0078,-0.0006,0.0041,0.0065,0.0077,0.0141,0.0118,0.0115,0.0115,0.0174,0.0176,0.0178,0.0155,0.0154,0.0154,0,0,-0.039,-0.0393,-0.0423,-0.0402,-0.038,-0.0344,-0.0345,-0.0299,-0.0268,-0.0223,-0.0166,-0.011,-0.0033,0.0026,0.0065,0.0076,0.0118,0.0086,0.0069,0.0124,0.0126,0.0129,0.0166,0.0173,0.0091,0.0091,0.0091,0,-0.0417,-0.0443,-0.0426,-0.0435,-0.0415,-0.0363,-0.0362,-0.0327,-0.0265,-0.0234,-0.0217,-0.0094,-0.0036,0.0036,0.0043,0.007,0.0099,0.0073,0.0119,0.0123,0.0126,0.0164,0.0172,0.0088,0.0089,0.0089,0.0089,0,-0.0477,-0.0487,-0.0501,-0.049,-0.0468,-0.0462,-0.0404,-0.0375,-0.0329,-0.0281,-0.0211,-0.013,-0.0054,-0.0027,0.0015,0.0068,0.0079,0.0101,0.0123,0.0124,0.0165,0.0174,0.0085,0.0086,0.0086,0.0087,0,0,-0.056,-0.0546,-0.0549,-0.0534,-0.0491,-0.0474,-0.0441,-0.0384,-0.0353,-0.0289,-0.0239,-0.0146,-0.0106,-0.0059,-0.0,0.0053,0.0102,0.0081,0.0086,0.0109,0.0209,0.0241,0.0254,0.0128,0.0129,0.013,0.0224,0,-0.0604,-0.0626,-0.0602,-0.0592,-0.0582,-0.0517,-0.0484,-0.0427,-0.0364,-0.0304,-0.0219,-0.0153,-0.0116,-0.0078,-0.0022,0.0075,0.0124,0.0074,0.0213,0.0217,0.0238,0.0265,0.0235,0.0319,0.0233,0.0235,0.0236,0,-0.0666,-0.0662,-0.067,-0.0616,-0.0607,-0.0593,-0.0517,-0.0481,-0.039,-0.0342,-0.027,-0.0201,-0.0109,-0.0081,0.0068,0.0031,0.011,0.018,0.0185,0.0242,0.0266,0.0308,0.0339,0.0251,0.025,0.0249,0.0248,0,-0.0717,-0.0702,-0.0704,-0.0689,-0.0632,-0.0618,-0.058,-0.0499,-0.0462,-0.0368,-0.0331,-0.0219,-0.0153,-0.0047,0.0094,0.0082,0.0255,0.0262,0.0362,0.0365,0.0382,0.0384,0.0362,0.0362,0.0362,0.0361,0.0361,0,-0.0763,-0.0762,-0.0731,-0.0731,-0.0719,-0.0662,-0.0637,-0.0583,-0.0509,-0.0462,-0.0362,-0.0296,-0.0141,-0.0022,0.0089,0.0256,0.0253,0.0366,0.0399,0.0361,0.036,0.0336,0.0332,0.0365,0.0364,0.0363,0.0363,0,-0.0817,-0.0802,-0.08,-0.0759,-0.0748,-0.0741,-0.0689,-0.0666,-0.0591,-0.0527,-0.05,-0.0346,-0.0182,-0.0028,0.0169,0.0259,0.0411,0.0469,0.0405,0.043,0.0479,0.0471,0.0586,0.0588,0.059,0.0591,0.0592,0,-0.0844,-0.0854,-0.0837,-0.0839,-0.0826,-0.0807,-0.0795,-0.0722,-0.0688,-0.055,-0.0518,-0.0348,-0.0203,0.0086,0.028,0.0484,0.0474,0.0562,0.0545,0.0486,0.0506,0.0495,0.0485,0.0539,0.054,0.054,0.0541,0,-0.0883,-0.0888,-0.0885,-0.0896,-0.0896,-0.0885,-0.0855,-0.0837,-0.0737,-0.0661,-0.0511,-0.0383,-0.0097,0.0146,0.0401,0.0505,0.0526,0.0581,0.0559,0.0486,0.045,0.0467,0.0457,0.0546,0.0545,0.0545,0.0545,0.0545,-0.0912,-0.0924,-0.093,-0.0935,-0.0944,-0.0941,-0.0918,-0.086,-0.0789,-0.0625,-0.0512,-0.0273,-0.0067,0.0333,0.0482,0.0617,0.0618,0.0641,0.0636,0.0631,0.0608,0.0577,0.0692,0.0692,0.0692,0.0692,0.0693,0,-0.0929,-0.094,-0.0958,-0.0965,-0.0981,-0.0972,-0.0935,-0.0876,-0.0771,-0.0591,-0.0415,-0.0141,0.0125,0.0334,0.0567,0.0692,0.0658,0.0689,0.062,0.0614,0.061,0.0582,0.0661,0.0661,0.0662,0.0662,0,0,-0.0934,-0.0954,-0.0961,-0.0984,-0.0993,-0.0975,-0.0944,-0.0837,-0.0689,-0.0485,-0.0286,-0.0057,0.0187,0.0343,0.0478,0.0586,0.0561,0.058,0.0593,0.0488,0.0482,0.057,0.0521,0,0,0,0,0]}],[{"header":{"parameterUnit":"m.s-1","parameterCategory":2,"la1":30.2991,"la2":30.254,"lo1":-89.0895,"lo2":-89.0444,"dy":0.0017,"dx":0.0017,"nx":28,"ny":28,"refTime":"2023-10-03T09:00:00:Z","depth":"4","parameterNumber":2,"parameterNumberName":"U-component_of_CURRENTS"},"data":[0,0,0,0,0,0,0,0,0,0,0,0,0,0,0,0,0,0,0,0,0,0,0,0,0,0,0,0,0,0,0,0,0,0,0,0,0,0,0,0,0,0,0,0,0,0,0,0,0,0,0,0,0,0,0,0,0,0,-0.1501,-0.1501,0,-0.1516,-0.1516,-0.1516,-0.154,-0.1541,-0.1541,-0.1542,-0.1555,-0.1555,-0.1555,0,0,0,0,0,0,0,0,0,0,0,0,0,-0.1459,-0.146,-0.1501,-0.1501,-0.1502,-0.1516,-0.1516,-0.1516,-0.154,-0.1541,-0.1541,-0.1542,-0.1555,-0.1555,-0.1555,0,0,0,0,0,0,0,0,0,0,0,0,0,-0.1474,-0.146,-0.1501,-0.1517,-0.1519,-0.1516,-0.1516,-0.1516,-0.154,-0.1541,-0.1542,-0.1542,-0.1555,-0.1555,-0.1555,-0.1534,0,0,-0.1554,-0.1554,0,0,0,0,0,0,0,0,-0.1474,-0.1476,-0.1514,-0.1516,-0.1518,-0.1529,-0.1507,-0.1523,-0.154,-0.153,-0.1542,-0.1543,-0.1547,-0.1547,-0.1545,-0.1535,-0.1535,-0.1554,-0.1554,-0.1553,-0.1553,0,0,0,0,0,0,0,-0.1473,-0.1475,-0.1505,-0.1514,-0.1517,-0.1512,-0.1515,-0.1509,-0.1531,-0.153,-0.1533,-0.1537,-0.1548,-0.1546,-0.1546,-0.1536,-0.1554,-0.1553,-0.1553,-0.1553,-0.1613,-0.1614,0,0,0,0,0,0,-0.1476,-0.1474,-0.1505,-0.1506,-0.15,-0.1512,-0.1516,-0.1523,-0.1531,-0.1534,-0.1537,-0.1538,-0.1546,-0.1546,-0.1546,-0.1616,-0.1553,-0.1553,-0.1553,-0.1611,-0.1613,-0.1615,0,0,0,0,0,0,-0.1475,-0.1478,-0.1504,-0.1492,-0.1495,-0.1513,-0.152,-0.1523,-0.1543,-0.1536,-0.1539,-0.1557,-0.1546,-0.1547,-0.157,-0.1613,-0.1553,-0.1553,-0.1609,-0.1612,-0.1614,-0.1695,0,0,0,0,0,0,-0.1473,-0.1478,-0.149,-0.1492,-0.1496,-0.1515,-0.1519,-0.1522,-0.1544,-0.1547,-0.1554,-0.1555,-0.1547,-0.1571,-0.157,-0.1612,-0.1552,-0.1607,-0.161,-0.1613,-0.169,-0.17,-0.1709,0,0,0,0,0,-0.1472,-0.1477,-0.1491,-0.1495,-0.1511,-0.1516,-0.1517,-0.1531,-0.1544,-0.1553,-0.1569,-0.1556,-0.1592,-0.1571,-0.157,-0.1613,-0.1605,-0.1609,-0.1613,-0.1686,-0.1698,-0.1709,0,0,0,0,0,0,-0.1464,-0.148,-0.1495,-0.1507,-0.152,-0.1521,-0.1532,-0.1542,-0.156,-0.1574,-0.1568,-0.157,-0.1606,-0.1597,-0.1574,-0.1641,-0.16,-0.1604,-0.1657,-0.1668,-0.1677,-0.1674,-0.1552,0,0,0,0,0,-0.147,-0.1478,-0.1495,-0.1505,-0.1517,-0.1531,-0.1539,-0.1551,-0.1564,-0.1574,-0.1587,-0.1603,-0.1616,-0.1632,-0.1635,-0.1666,-0.1637,-0.1697,-0.1706,-0.1714,-0.1713,-0.1707,-0.1715,-0.1628,-0.1628,-0.1628,0,0,-0.1465,-0.1479,-0.1482,-0.1504,-0.1518,-0.1544,-0.1538,-0.1559,-0.1589,-0.1571,-0.1623,-0.1629,-0.1629,-0.1669,-0.1686,-0.1672,-0.1725,-0.1719,-0.1726,-0.172,-0.1712,-0.172,-0.1727,-0.1631,-0.163,-0.163,0,0,-0.1465,-0.1482,-0.1497,-0.1516,-0.1548,-0.1558,-0.1572,-0.1598,-0.1621,-0.1661,-0.1664,-0.1693,-0.172,-0.1732,-0.1739,-0.1798,-0.1766,-0.1816,-0.1871,-0.1866,-0.1873,-0.1878,-0.1851,-0.1854,-0.1831,-0.1831,-0.1831,0,-0.1465,-0.1494,-0.1501,-0.1531,-0.1554,-0.1572,-0.1605,-0.1627,-0.1661,-0.1685,-0.1692,-0.1743,-0.1747,-0.1788,-0.1824,-0.1818,-0.1806,-0.1828,-0.1877,-0.1882,-0.1886,-0.1857,-0.1858,-0.1835,-0.1835,-0.1835,-0.1834,0,-0.1483,-0.1518,-0.1529,-0.1578,-0.16,-0.1627,-0.1664,-0.1705,-0.174,-0.1758,-0.1812,-0.182,-0.1851,-0.187,-0.1871,-0.1918,-0.1895,-0.188,-0.1845,-0.19,-0.1866,-0.1866,-0.1842,-0.184,-0.1839,-0.1838,0,0,-0.1462,-0.1528,-0.1542,-0.1579,-0.1633,-0.1652,-0.1713,-0.1764,-0.1807,-0.1848,-0.1893,-0.1937,-0.1943,-0.1951,-0.1958,-0.1971,-0.1997,-0.1958,-0.1956,-0.1925,-0.198,-0.185,-0.1836,-0.2,-0.2001,-0.2001,-0.1944,0,-0.1485,-0.1548,-0.1578,-0.1646,-0.1682,-0.1727,-0.1777,-0.1826,-0.1867,-0.1914,-0.1933,-0.1966,-0.1973,-0.1997,-0.2015,-0.1996,-0.2002,-0.2013,-0.1937,-0.1934,-0.1806,-0.1834,-0.2003,-0.1944,-0.1943,-0.1943,-0.1943,0,-0.151,-0.1547,-0.1615,-0.1692,-0.1714,-0.1758,-0.1845,-0.189,-0.195,-0.198,-0.2019,-0.2023,-0.2055,-0.2045,-0.2041,-0.2054,-0.2031,-0.2009,-0.2006,-0.1852,-0.1803,-0.1879,-0.1943,-0.1943,-0.1943,-0.1943,-0.1943,0,-0.1495,-0.1583,-0.1637,-0.1664,-0.1745,-0.1795,-0.1844,-0.1914,-0.1946,-0.2014,-0.2033,-0.2067,-0.2075,-0.2067,-0.2035,-0.2048,-0.2004,-0.2003,-0.1857,-0.1846,-0.1945,-0.194,-0.1991,-0.1991,-0.1991,-0.1992,-0.1992,0,-0.1499,-0.1548,-0.1642,-0.1667,-0.173,-0.1799,-0.1863,-0.192,-0.1983,-0.1991,-0.2059,-0.2051,-0.2086,-0.2063,-0.2038,-0.1933,-0.2,-0.1857,-0.1823,-0.1981,-0.1981,-0.1944,-0.194,-0.1989,-0.199,-0.199,-0.1991,0,-0.1453,-0.1526,-0.1585,-0.1685,-0.172,-0.1761,-0.1848,-0.1878,-0.1964,-0.1976,-0.1992,-0.204,-0.2,-0.2004,-0.1967,-0.1908,-0.1836,-0.1783,-0.1937,-0.1914,-0.1683,-0.1684,-0.1611,-0.1606,-0.1601,-0.1598,-0.1595,0,-0.1421,-0.1454,-0.1565,-0.1591,-0.1635,-0.1707,-0.1739,-0.1845,-0.1859,-0.193,-0.1907,-0.192,-0.1925,-0.1765,-0.1795,-0.1721,-0.1706,-0.1666,-0.1694,-0.1669,-0.1645,-0.1652,-0.1658,-0.1588,-0.1587,-0.1586,-0.1585,0,-0.1335,-0.1396,-0.1434,-0.1491,-0.154,-0.158,-0.1638,-0.1645,-0.1736,-0.1827,-0.1767,-0.1737,-0.1688,-0.1654,-0.1612,-0.1564,-0.1693,-0.1621,-0.163,-0.1657,-0.1641,-0.1622,-0.1633,-0.157,-0.1572,-0.1573,-0.1574,0,-0.1254,-0.1261,-0.1322,-0.1358,-0.1418,-0.1428,-0.1485,-0.1492,-0.1527,-0.1623,-0.1583,-0.16,-0.165,-0.1568,-0.1519,-0.1471,-0.1455,-0.142,-0.1439,-0.1456,-0.1433,-0.1393,-0.1207,0,0,0,0,0,-0.1151,-0.1149,-0.1177,-0.1212,-0.127,-0.1301,-0.1393,-0.1454,-0.155,-0.1462,-0.1526,-0.1468,-0.1405,-0.1418,-0.1332,-0.145,-0.1465,-0.1345,-0.1437,-0.1487,-0.1504,-0.1492,0,0,0,0,0,0,-0.1079,-0.1102,-0.1124,-0.108,-0.1076,-0.1117,-0.1174,-0.1248,-0.1219,-0.1322,-0.1293,-0.1365,-0.1325,-0.1411,-0.129,-0.1294,-0.1321,-0.1368,-0.1364,-0.1477,-0.1492,-0.1506,-0.1501,0,0,0,0,0]},{"header":{"parameterUnit":"m.s-1","parameterCategory":2,"la1":30.2991,"la2":30.254,"lo1":-89.0895,"lo2":-89.0444,"dy":0.0017,"dx":0.0017,"nx":28,"ny":28,"refTime":"2023-10-03T09:00:00:Z","depth":"4","parameterNumber":3,"parameterNumberName":"V-component_of_CURRENTS"},"data":[0,0,0,0,0,0,0,0,0,0,0,0,0,0,0,0,0,0,0,0,0,0,0,0,0,0,0,0,0,0,0,0,0,0,0,0,0,0,0,0,0,0,0,0,0,0,0,0,0,0,0,0,0,0,0,0,0,0,-0.0195,-0.0195,0,-0.0174,-0.0174,-0.0174,-0.0142,-0.0142,-0.0141,-0.0141,-0.0058,-0.0057,-0.0055,0,0,0,0,0,0,0,0,0,0,0,0,0,-0.0167,-0.0167,-0.0195,-0.0195,-0.0195,-0.0174,-0.0174,-0.0174,-0.0142,-0.0142,-0.0141,-0.0141,-0.0059,-0.0057,-0.0055,0,0,0,0,0,0,0,0,0,0,0,0,0,-0.0165,-0.0168,-0.0195,-0.0177,-0.0175,-0.0174,-0.0174,-0.0174,-0.0142,-0.0142,-0.0141,-0.014,-0.006,-0.0057,-0.0055,-0.0054,0,0,-0.0047,-0.0046,0,0,0,0,0,0,0,0,-0.0165,-0.0166,-0.018,-0.0178,-0.0176,-0.0161,-0.0134,-0.0131,-0.0143,-0.0154,-0.0141,-0.014,-0.0088,-0.0083,-0.0081,-0.005,-0.0046,-0.0047,-0.0045,-0.0044,-0.0043,0,0,0,0,0,0,0,-0.0166,-0.0167,-0.0186,-0.018,-0.0178,-0.0156,-0.0155,-0.0133,-0.0124,-0.0153,-0.0151,-0.015,-0.0086,-0.0083,-0.0078,-0.0045,-0.0047,-0.0044,-0.0043,-0.0042,-0.0003,-0.0004,0,0,0,0,0,0,-0.0173,-0.0167,-0.0187,-0.0186,-0.017,-0.0157,-0.0156,-0.0166,-0.0126,-0.0119,-0.0151,-0.0149,-0.0088,-0.0081,-0.0075,-0.0054,-0.0044,-0.0041,-0.004,-0.0003,-0.0003,-0.0004,0,0,0,0,0,0,-0.0172,-0.0175,-0.0188,-0.0176,-0.0176,-0.0159,-0.017,-0.0166,-0.0164,-0.0124,-0.0117,-0.0152,-0.0087,-0.0079,-0.0055,-0.0051,-0.004,-0.0038,-0.0002,-0.0003,-0.0004,-0.0022,0,0,0,0,0,0,-0.0172,-0.0175,-0.0187,-0.0177,-0.0177,-0.0193,-0.017,-0.0166,-0.0164,-0.0162,-0.0123,-0.0115,-0.0086,-0.006,-0.0053,-0.0047,-0.0036,-0.0001,-0.0002,-0.0003,-0.0021,-0.0024,-0.0026,0,0,0,0,0,-0.0171,-0.0194,-0.0188,-0.019,-0.0193,-0.0194,-0.0192,-0.0176,-0.0165,-0.017,-0.014,-0.0116,-0.0061,-0.0058,-0.005,-0.0043,-0.0001,-0.0002,-0.0003,-0.002,-0.0023,-0.0026,0,0,0,0,0,0,-0.019,-0.0192,-0.0186,-0.0209,-0.0203,-0.0189,-0.0194,-0.0183,-0.0165,-0.0162,-0.012,-0.0109,-0.009,-0.007,-0.0067,-0.0038,-0.0029,-0.0028,-0.0044,-0.0047,-0.0049,-0.0042,-0.0034,0,0,0,0,0,-0.02,-0.0216,-0.0209,-0.0227,-0.0226,-0.0211,-0.021,-0.0202,-0.0184,-0.0176,-0.0148,-0.0118,-0.009,-0.0071,-0.0051,-0.0031,0.0004,-0.0025,-0.0027,-0.0029,-0.002,0.0044,0.0049,-0.0008,-0.0008,-0.0008,0,0,-0.0211,-0.0215,-0.0224,-0.0232,-0.0225,-0.0228,-0.0208,-0.0215,-0.0209,-0.0169,-0.0155,-0.013,-0.009,-0.0069,-0.0058,-0.0047,-0.0,-0.0031,-0.0033,-0.0022,0.0044,0.005,0.0055,-0.0009,-0.0009,-0.0008,0,0,-0.0242,-0.0246,-0.0268,-0.0265,-0.0264,-0.0251,-0.0255,-0.0244,-0.0231,-0.0218,-0.0185,-0.0152,-0.0122,-0.0081,-0.0057,-0.0062,-0.0021,-0.0067,-0.0061,0.0001,0.0007,0.0013,0.0047,0.0056,-0.006,-0.006,-0.006,0,-0.0254,-0.0279,-0.0273,-0.0288,-0.0281,-0.0262,-0.0271,-0.0258,-0.024,-0.0219,-0.0218,-0.0149,-0.0121,-0.0065,-0.0069,-0.0063,-0.0034,-0.005,0.0,0.0007,0.0013,0.0048,0.0058,-0.0061,-0.0061,-0.0061,-0.0061,0,-0.0298,-0.0311,-0.0322,-0.0328,-0.0322,-0.0329,-0.0306,-0.0298,-0.0278,-0.0251,-0.0206,-0.0164,-0.0115,-0.0106,-0.0086,-0.003,-0.0028,-0.0014,0.0013,0.0019,0.0053,0.0064,-0.0063,-0.0063,-0.0062,-0.0062,0,0,-0.0344,-0.035,-0.0355,-0.0352,-0.0341,-0.0341,-0.0326,-0.0297,-0.0275,-0.0247,-0.0204,-0.0154,-0.0124,-0.0096,-0.0063,-0.0008,0.0052,0.0004,0.0008,0.0046,0.0171,0.0141,0.015,0.0077,0.0079,0.0081,0.0171,0,-0.0375,-0.0405,-0.0395,-0.0404,-0.0408,-0.0374,-0.0357,-0.0326,-0.0288,-0.0246,-0.0181,-0.0139,-0.0121,-0.0098,-0.0038,0.0027,0.0083,0.0025,0.0153,0.0156,0.0137,0.0163,0.0088,0.018,0.0182,0.0184,0.0186,0,-0.0425,-0.0431,-0.0453,-0.0426,-0.0423,-0.0426,-0.0379,-0.0361,-0.0291,-0.0258,-0.0194,-0.0146,-0.0065,-0.0055,0.008,0.004,0.0104,0.0157,0.0162,0.0153,0.0148,0.0177,0.0207,0.0205,0.0203,0.0202,0.0201,0,-0.0464,-0.0468,-0.0482,-0.0478,-0.0453,-0.0448,-0.0428,-0.037,-0.0343,-0.0266,-0.0234,-0.0132,-0.0083,0.0018,0.0115,0.0104,0.0261,0.0263,0.03,0.0298,0.0307,0.03,0.0372,0.0372,0.0372,0.0372,0.0372,0,-0.0498,-0.051,-0.0506,-0.0515,-0.0516,-0.0484,-0.047,-0.0432,-0.0371,-0.033,-0.0249,-0.0192,-0.006,0.004,0.0127,0.0242,0.0276,0.0311,0.0329,0.0291,0.0282,0.0314,0.0306,0.0375,0.0374,0.0374,0.0373,0,-0.0538,-0.054,-0.0556,-0.0543,-0.0541,-0.0545,-0.0513,-0.0492,-0.0434,-0.0379,-0.0356,-0.0227,-0.0099,0.0027,0.0195,0.025,0.0366,0.0402,0.0339,0.035,0.0356,0.0346,0.0454,0.0454,0.0454,0.0454,0.0454,0,-0.0556,-0.0574,-0.059,-0.06,-0.06,-0.0598,-0.0592,-0.0538,-0.0505,-0.0397,-0.0364,-0.0234,-0.0142,0.0075,0.0198,0.0366,0.0385,0.0435,0.041,0.0363,0.037,0.036,0.035,0.0453,0.0453,0.0453,0.0453,0,-0.0578,-0.0599,-0.061,-0.0637,-0.0649,-0.0646,-0.0627,-0.0606,-0.0529,-0.0486,-0.0353,-0.023,-0.0085,0.0075,0.0204,0.0323,0.0396,0.0435,0.0436,0.0413,0.0364,0.0368,0.0359,0.0453,0.0453,0.0453,0.0453,0,-0.0593,-0.0611,-0.0637,-0.0652,-0.0678,-0.0674,-0.0661,-0.0598,-0.0555,-0.0429,-0.0389,-0.0222,-0.012,0.0054,0.0175,0.0284,0.0307,0.033,0.0337,0.0339,0.027,0.0189,0.0253,0,0,0,0,0,-0.0591,-0.061,-0.0636,-0.0655,-0.0686,-0.0691,-0.0668,-0.0641,-0.0575,-0.0487,-0.043,-0.029,-0.0089,0.0008,0.0114,0.0154,0.0307,0.0277,0.0332,0.0452,0.0452,0.0387,0,0,0,0,0,0,-0.0587,-0.0622,-0.0634,-0.0657,-0.0671,-0.0689,-0.0676,-0.0631,-0.0562,-0.0485,-0.037,-0.0292,-0.0093,-0.0155,0.0106,0.0141,0.0185,0.0379,0.0381,0.0452,0.0452,0.0452,0.0386,0,0,0,0,0]}]]